          11  08 14.51  +11 06.0   0.030  1.006   293.6 / 311  11.8   88  .17

          12  07 59.34  +14 18.1   0.025  1.004   421.4 / 310  11.2  106  .09

          13  07 36.74  +18 46.6   0.021  1.002   627.2 / 309  10.6  125  .04

          14  07 00.74  +25 04.5   0.017  1.000   938.8 / 305   9.9  147  .01

          15  05 59.60  +33 17.8   0.014  0.998  1283.4 / 298   9.1  169  .00

          16  04 18.66  +40 44.9   0.013  0.996  1377.2 / 282   9.3  147  .01

          17  02 16.12  +41 35.5   0.013  0.993  1108.6 / 262  10.0  114  .05

          18  00 44.16  +36 34.2   0.015  0.991   760.5 / 247  10.9   85  .10

          19  23 49.66  +30 51.4   0.019  0.988   507.9 / 240  11.7   63  .16

          20  23 17.10  +26 18.8   0.023  0.985   349.4 / 236  12.5   47  .24

          21  22 56.22  +22 56.2   0.027  0.982   250.7 / 234  13.1   36  .33

          22  22 41.89  +20 24.7   0.032  0.979   187.3 / 232  13.7   32  .42

          23  22 31.48  +18 28.9   0.037  0.976   144.9 / 231  14.1   34  .51

          24  22 23.59  +16 57.9   0.041  0.973   115.5 / 231  14.5   42  .61

          25  22 17.38  +15 44.7   0.046  0.970    94.5 / 231  14.9   52  .70

          26  22 12.35  +14 44.5   0.051  0.966    79.1 / 230  15.2   63  .79

          27  22 08.17  +13 53.9   0.056  0.962    67.5 / 230  15.6   75  .86

          28  22 04.62  +13 10.6   0.061  0.959    58.7 / 230  15.8   88  .93

          29  22 01.54  +12 33.0   0.066  0.955    51.8 / 230  16.1  101  .97

          30  21 58.83  +11 59.7   0.071  0.951    46.4 / 230  16.4  114 1.00

          31  21 56.41  +11 29.9   0.076  0.947    42.2 / 230  16.6  127 1.00

2002 Jan.  1  21 54.21  +11 02.8   0.081  0.942    38.8 / 230  16.8  138  .97

NAKANO

         **** Don't distribute anyone except personal use only ****

                (C) Copyright 2001 OAA/ComputingSection

write mail from CFAD0::NAKANO on 2001-11-07 21:59:21(JST).

 

1998 WT24 

Epoch 1998 Nov. 23.0 TT = JDT 2451140.5                 Nakano

M 198.77816              (2000.0)            P               Q

n   1.61917165     Peri.  167.37233     -0.34935893     +0.92835987

a   0.7182475      Node    82.07045     -0.87042576     -0.27142848

e   0.4176157      Incl.    7.35958     -0.34685347     -0.25391837

P   0.61           H   17.5           G   0.15           U   *

Residuals in seconds of arc 

981125 704  1.3-  0.4+    981201 704  0.2+  0.1-    981204 046  0.6-  0.0   

981125 704 (2.8-  2.4+)   981201 704  0.3+  0.3+    981204 046  0.2-  0.2+  

981125 704  0.1-  0.1+    981201 704  0.6+  0.5+    981216 360  0.4+  0.5+  

981125 704  0.6+  0.2-    981201 704  0.5+  0.3-    981216 360  0.1+  0.5+  

981125 704  1.2+  0.3+    981201 704  0.5-  0.4+    981216 360  0.1+  0.8+  

981126 734  0.8-  0.5-    981202 327  0.5+  0.3-    981217 046  0.3-  0.3+  

981126 734  0.8+  0.2-    981202 327  1.3+  0.1-    981217 046  0.4-  0.3+  

981126 734 (2.3+  0.1-)   981202 327  0.6+  0.4-    981217 046  0.1-  0.1-  

981201 704  0.8-  0.8+    981204 046  1.0+  0.3-    981218 402  0.5-  0.5-  

981201 704  0.9-  0.6-    981204 046  0.1+  0.2-    981218 402  0.9+  0.7-  

981201 704  1.5-  0.0     981204 046  0.2-  0.2-    981218 402  0.2-  0.5-  

981201 704  0.3-  0.1-    981204 046  0.3-  0.1-                            

 

J98W24T 0.15J9932570565716737232610820704500007359580304182960530417615720      

1998 WT24  17.5  J98BN 198.8 167.4  82.1   7.4 0.418   0.718   1    23    33   N

akano    MPC xxxxx J98BP J98CI  0.55       0000



1998 WT24 

Epoch 1998 Nov. 23.0 TT = JDT 2451140.5                 Nakano

M 198.78976              (2000.0)            P               Q

n   1.61925847     Peri.  167.36907     -0.34931983     +0.92836676

a   0.7182218      Node    82.07598     -0.87044632     -0.27137318

e   0.4177150      Incl.    7.36282     -0.34684127     -0.25395228

P   0.61           H   17.5           G   0.15           U   *

 

J98W24T 0.15J9932558065516736906790820759757007362818404182097870417715010      

1998 WT24  17.5  J98BN 198.8 167.4  82.1   7.4 0.418   0.718   1    22    30   N

akano    MPC xxxxx J98BP J98CH  0.54       0000



1998 WT24 

Epoch 1998 Nov. 23.0 TT = JDT 2451140.5                 Nakano

M 198.78976              (2000.0)            P               Q

n   1.61925847     Peri.  167.36907     -0.34931983     +0.92836676

a   0.7182218      Node    82.07598     -0.87044632     -0.27137318

e   0.4177150      Incl.    7.36282     -0.34684127     -0.25395228

P   0.61           H   17.5           G   0.15           U   *

 

J98W24T 0.15J9932558065516736906790820759757007362818404182097870417715010      

1998 WT24  17.5  J98BN 198.8 167.4  82.1   7.4 0.418   0.718   1    22    30   N

akano    MPC xxxxx J98BP J98CH  0.54       0000



戻ります。